Tracking 29892 objects as of 21-Nov-2024
HD Live streaming from Space Station
objects crossing your sky now

SL-8 R/B

Track SL-8 R/B now!
10-day predictions


NORAD ID: 15625
Int'l Code: 1985-023J
Perigee: 1,483.8 km
Apogee: 1,716.5 km
Inclination: 74.1 °
Period: 118.0 minutes
Semi major axis: 7971 km
RCS: 5.8086 m2 (large)
Launch date: March 21, 1985
Source: Commonwealth of Independent States (former USSR) (CIS)
Launch site: PLESETSK MISSILE AND SPACE COMPLEX (PKMTR)

Note: This is a ROCKET BODY
Your satellite tracking list
Your tracking list is empty




NASA's NSSDC Master Catalog

Two Line Element Set (TLE):
1 15625U 85023J   24325.64257368 -.00000023  00000-0 -82714-4 0  9997
2 15625  74.0572  20.7263 0145945 170.5038 358.1102 12.19895608646676
Source of the keplerian elements: AFSPC